CAPE
128 88 74 82 254 276 200 168 427 841 1558 1591 1464 1387 1130 1143 809 1037 1070 877 812 188
230 178 127 113 126 66 147 154 392 653 1008 1337 1423 1525 1446 1349 932 1087 989 1070 884 709
271 267 236 215 236 131 204 140 505 781 967 1356 1431 1564 1631 1595 1328 1102 1159 1283 1193 628
298 335 325 348 337 349 275 203 52 697 1032 1219 1444 1500 1571 1623 1565 1312 1343 1295 1384 1465
338 397 540 634 348 307 234 264 304 190 887 1201 1273 1448 1473 1445 1502 1514 1514 1551 1613 1704
355 312 314 426 865 890 722 578 359 516 948 1090 1203 1305 1510 1504 1430 1453 1460 1348 1494 1712
570 585 542 365 293 505 894 890 1051 820 509 1124 1397 1703 1769 1630 1655 1533 1430 1451 1590 1628
453 650 767 813 719 517 483 759 746 761 777 899 1274 1443 1780 1975 1755 1691 1558 1569 1644 1756
587 679 960 1219 1230 1059 842 680 771 799 739 818 1061 1223 1687 1740 1740 1790 1600 1596 1690 1751
918 897 929 1280 1664 1749 1465 1261 1094 944 879 856 925 1139 1353 1763 1586 1477 1534 1539 1520 1553
1127 1262 1384 1273 1421 1680 1946 1829 1617 1438 1362 1311 1183 1400 1445 1470 1600 1571 1678 1730 1751 1777
1235 1272 1445 1834 1764 1770 1833 2089 2121 1919 1777 1722 1715 1628 1541 1870 1892 1846 1888 1933 2000 2057
1139 1374 1627 1752 1999 2040 2121 2131 2236 2383 2331 2199 2118 2080 2124 2015 1955 1930 2057 2127 2261 2353
1510 1605 1810 2048 2121 2297 2360 2443 2530 2581 2603 2633 2667 2688 2686 2639 2546 2525 2559 2621 2661 2659
CIN
-207 -196 -187 -202 -134 -109 -118 -134 -159 -89 -48 -23 -13 -7 -31 -12 -33 -13 -23 -55 -70 -178
-227 -209 -207 -187 -178 -222 -154 -230 -196 -124 -126 -83 -45 -17 -8 -14 -48 -27 -22 -42 -82 -132
-275 -248 -228 -211 -196 -229 -189 -176 -189 -145 -111 -114 -80 -44 -17 -14 -15 -42 -49 -52 -67 -188
-301 -304 -254 -242 -232 -208 -204 -197 -253 -179 -110 -83 -105 -73 -45 -28 -24 -52 -54 -75 -67 -69
-292 -310 -303 -300 -277 -254 -267 -250 -215 -284 -156 -76 -71 -114 -82 -62 -44 -42 -81 -81 -57 -69
-362 -388 -377 -350 -275 -235 -210 -198 -198 -265 -180 -121 -116 -120 -130 -91 -72 -76 -62 -135 -121 -106
-406 -417 -427 -401 -403 -406 -296 -214 -156 -174 -221 -226 -155 -88 -47 -141 -100 -82 -95 -121 -135 -129
-488 -429 -394 -393 -408 -394 -427 -354 -308 -247 -231 -276 -226 -195 -117 -64 -83 -128 -136 -146 -132 -108
-493 -461 -418 -372 -366 -381 -379 -360 -370 -363 -352 -296 -304 -246 -199 -154 -109 -82 -79 -180 -182 -180
-462 -479 -486 -398 -301 -285 -337 -337 -325 -341 -397 -401 -391 -326 -268 -203 -192 -203 -194 -188 -190 -189
-479 -467 -434 -440 -411 -352 -291 -300 -329 -343 -340 -333 -365 -382 -339 -299 -241 -260 -253 -260 -253 -242
-542 -523 -482 -406 -410 -402 -348 -296 -305 -346 -346 -363 -364 -349 -372 -293 -273 -282 -295 -283 -269 -267
-536 -499 -476 -462 -394 -367 -327 -324 -300 -291 -307 -319 -310 -276 -326 -296 -286 -328 -322 -302 -282 -268
-484 -474 -439 -384 -348 -310 -294 -276 -277 -285 -282 -286 -288 -273 -244 -217 -227 -255 -243 -260 -258 -256
Wind_Speed
6 nan nan nan 4 4 2 2 2 5 7 9 10 8 8 6 7 9 13 15 13 12
6 5 4 6 4 nan 5 4 2 4 6 9 10 12 9 6 7 8 9 12 14 14
7 6 7 7 4 4 4 3 5 7 6 7 10 10 11 9 8 8 7 8 11 11
9 8 5 7 4 3 5 7 nan 10 9 9 7 10 10 10 10 11 8 6 7 8
10 8 6 5 3 4 6 9 13 14 12 9 8 9 11 10 10 11 9 8 7 7
9 8 7 3 2 3 4 4 7 11 11 9 8 9 9 9 10 10 9 7 7 9
11 10 7 4 1 3 3 4 5 8 11 8 6 7 9 8 6 6 8 9 8 8
13 12 8 5 3 4 3 3 6 8 8 7 5 4 5 4 4 3 7 6 7 7
15 11 8 6 5 6 7 9 9 5 5 4 2 6 6 4 3 5 6 6 6 7
14 12 9 10 6 5 7 10 5 2 1 3 4 5 4 5 6 4 3 4 3 4
14 12 11 6 3 5 8 6 5 3 1 2 3 6 4 2 2 3 1 3 7 5
13 10 8 3 2 4 6 5 4 2 0 3 5 9 9 8 4 2 1 4 8 11
17 15 11 8 8 11 10 6 6 2 2 7 9 14 17 14 9 5 7 8 9 13
24 19 17 18 17 15 13 12 8 6 7 8 12 14 21 22 13 10 14 12 13 15
Wind_Direction
186 nan nan nan 235 196 181 90 68 17 342 13 358 353 352 5 13 25 38 44 51 54
192 196 191 244 219 nan 172 179 248 320 348 344 351 357 341 330 6 1 17 32 36 33
181 196 208 224 221 212 210 228 265 292 307 311 339 339 343 344 337 348 5 8 12 22
186 203 203 194 208 272 281 297 nan 284 287 291 309 316 327 339 344 352 0 342 347 12
201 216 179 176 223 290 312 293 292 288 286 289 301 309 334 342 343 354 358 359 326 23
198 182 187 203 313 315 9 349 309 306 302 301 304 315 334 339 339 339 354 11 349 28
170 171 187 200 65 102 65 51 350 336 359 353 331 325 313 322 328 338 19 34 36 52
173 186 186 157 170 202 236 309 337 346 331 343 5 300 320 344 29 45 59 48 66 73
190 191 176 187 224 258 269 288 297 307 304 331 3 13 11 52 106 89 76 73 57 43
193 191 193 206 223 258 275 274 289 283 333 34 32 19 31 46 108 108 79 46 23 350
201 203 214 220 244 264 264 287 263 297 329 13 24 330 344 4 96 122 104 2 356 354
189 194 213 185 251 239 252 266 288 244 300 17 3 341 327 286 239 218 10 332 339 342
184 190 189 200 216 214 223 219 237 237 347 336 333 318 320 314 263 254 255 294 323 334
198 199 202 209 217 222 226 229 233 242 273 318 314 331 320 316 300 269 257 271 286 295